Pula, Croatia

5:19 AM CEST on June 27, 2017 (GMT +0200)
Pula

Weather History for LDPL - October, 2013

Change the Weather History Date:

Monday, October 28, 2013

  Actual Average Record
Temperature  
Mean Temperature 68 °F -  
Max Temperature 71 °F - - ()
Min Temperature 62 °F - - ()
Cooling Degree Days 2    
Growing Degree Days 18 (Base 50)    
Moisture  
Dew Point 63 °F    
Average Humidity 89    
Maximum Humidity 94    
Minimum Humidity 74    
Precipitation  
Precipitation 0.00 in - - ()
Sea Level Pressure  
Sea Level Pressure 30.05 in    
Wind  
Wind Speed 5 mph ()    
Max Wind Speed 11 mph    
Max Gust Speed -    
Visibility 6.9 miles    
Events      
T = Trace of Precipitation, MM = Missing Value Source: Averaged Metar Reports

Daily Weather History Graph

Daily Weather History Graph

Search for Another Location

Airport or City:

Trip Planner

Search our weather history database for the weather conditions in past years. The results will help you decide how hot, cold, wet, or windy it might be!

Date:

Astronomy

Oct. 28, 2013 Rise Set
Actual Time 6:37 AM CET 4:58 PM CET
Civil Twilight 6:06 AM CET 5:28 PM CET
Nautical Twilight 5:32 AM CET 6:03 PM CET
Astronomical Twilight 4:58 AM CET 6:37 PM CET
Moon No Moon Rise 1:45 PM CET (10/28)
Length of Visible Light 11h 21m
Length of Day
10h 21m
Last Quarter, 36% of the Moon is Illuminated
Oct 28
Last Quarter
Nov 3
New
Nov 10
First Quarter
Nov 17
Full
Nov 25
Last Quarter

Hourly Weather History & Observations

Time (CET) Temp. Dew Point Humidity Pressure Visibility Wind Dir Wind Speed Gust Speed Precip Events Conditions
12:00 AM 64.4 °F 62.6 °F 94% 30.09 in 6.2 mi Variable 3.5 mph - N/A   Overcast
12:30 AM 64.4 °F 62.6 °F 94% 30.09 in 6.2 mi Variable 3.5 mph - N/A   Mostly Cloudy
1:00 AM 64.4 °F 62.6 °F 94% 30.09 in 6.2 mi Variable 3.5 mph - N/A   Overcast
1:30 AM 64.4 °F 62.6 °F 94% 30.09 in 6.2 mi Variable 3.5 mph - N/A   Overcast
2:00 AM 64.4 °F 62.6 °F 94% 30.09 in 6.2 mi East 5.8 mph - N/A   Overcast
2:30 AM 64.4 °F 62.6 °F 94% 30.09 in 6.2 mi East 5.8 mph - N/A   Scattered Clouds
3:00 AM 64.4 °F 62.6 °F 94% 30.06 in 6.2 mi ESE 5.8 mph - N/A   Mostly Cloudy
3:30 AM 64.4 °F 62.6 °F 94% 30.06 in 6.2 mi East 5.8 mph - N/A   Mostly Cloudy
4:00 AM 64 °F 63 °F 94% 30.09 in 6 mi East 4.5 mph - -   Mostly Cloudy
4:00 AM 64.4 °F 62.6 °F 94% 30.06 in 6.2 mi East 4.6 mph - N/A   Mostly Cloudy
4:30 AM 64.4 °F 62.6 °F 94% 30.06 in 6.2 mi SE 4.6 mph - N/A   Mostly Cloudy
5:00 AM 64 °F 63 °F 94% 30.08 in 6 mi East 6.7 mph - -   Overcast
5:00 AM 64.4 °F 62.6 °F 94% 30.06 in 6.2 mi East 5.8 mph - N/A   Mostly Cloudy
5:30 AM 64.4 °F 62.6 °F 94% 30.06 in 6.2 mi Variable 4.6 mph - N/A   Scattered Clouds
6:00 AM 64 °F 62 °F 92% 30.07 in 6 mi East 6.7 mph - -   Overcast
6:00 AM 64.4 °F 62.6 °F 94% 30.06 in 6.2 mi East 6.9 mph - N/A   Mostly Cloudy
6:30 AM 64.4 °F 62.6 °F 94% 30.06 in 5.6 mi ESE 4.6 mph - N/A   Scattered Clouds
7:00 AM 64.4 °F 62.6 °F 94% 30.06 in 5.6 mi SE 4.6 mph - N/A   Partly Cloudy
7:30 AM 64.4 °F 62.6 °F 94% 30.06 in 6.2 mi SE 4.6 mph - N/A   Partly Cloudy
8:00 AM 65 °F 63 °F 92% 30.09 in 6 mi SE 6.7 mph - -   Mist
8:00 AM 66.2 °F 62.6 °F 88% 30.06 in 5.6 mi SE 6.9 mph - N/A   Partly Cloudy
8:30 AM 66.2 °F 62.6 °F 88% 30.06 in 5.6 mi ESE 4.6 mph - N/A   Partly Cloudy
9:00 AM 67 °F 64 °F 85% 30.08 in 8 mi SE 4.5 mph - -   Scattered Clouds
9:00 AM 66.2 °F 64.4 °F 94% 30.06 in 6.2 mi SE 4.6 mph - N/A   Partly Cloudy
9:30 AM 68.0 °F 62.6 °F 83% 30.06 in 6.2 mi South 4.6 mph - N/A   Partly Cloudy
10:00 AM 69 °F 64 °F 79% 30.09 in 11 mi SSE 6.7 mph - -   Scattered Clouds
10:00 AM 68.0 °F 64.4 °F 88% 30.09 in 6.2 mi SSE 6.9 mph - N/A   Partly Cloudy
10:30 AM 69.8 °F 64.4 °F 83% 30.09 in 6.2 mi South 8.1 mph - N/A   Scattered Clouds
11:00 AM 69 °F 63 °F 76% 30.09 in 14 mi South 8.9 mph - -   Partly Cloudy
11:00 AM 69.8 °F 62.6 °F 78% 30.09 in 6.2 mi South 8.1 mph - N/A   Scattered Clouds
11:30 AM 68.0 °F 64.4 °F 88% 30.09 in 6.2 mi SSE 8.1 mph - N/A   Scattered Clouds
12:00 PM 69 °F 64 °F 79% 30.08 in 16 mi SSE 8.9 mph - -   Scattered Clouds
12:00 PM 69.8 °F 64.4 °F 83% 30.06 in 6.2 mi SSE 9.2 mph - N/A   Partly Cloudy
12:30 PM 71.6 °F 64.4 °F 78% 30.06 in 6.2 mi South 8.1 mph - N/A   Partly Cloudy
1:00 PM 70 °F 64 °F 74% 30.06 in 16 mi SSE 8.9 mph - -   Scattered Clouds
1:00 PM 69.8 °F 64.4 °F 83% 30.06 in 6.2 mi SSE 8.1 mph - N/A   Partly Cloudy
1:30 PM 69.8 °F 64.4 °F 83% 30.04 in 6.2 mi SSE 10.4 mph - N/A   Partly Cloudy
2:00 PM 69.8 °F 64.4 °F 83% 30.04 in 6.2 mi South 8.1 mph - N/A   Partly Cloudy
2:30 PM 69.8 °F 64.4 °F 83% 30.04 in 6.2 mi South 8.1 mph - N/A   Partly Cloudy
3:00 PM 69 °F 63 °F 76% 30.04 in 12 mi South 11.2 mph - -   Scattered Clouds
3:00 PM 68.0 °F 62.6 °F 83% 30.04 in 6.2 mi South 8.1 mph - N/A   Partly Cloudy
3:30 PM 68.0 °F 62.6 °F 83% 30.04 in 6.2 mi South 4.6 mph - N/A   Partly Cloudy
4:00 PM 67 °F 63 °F 81% 30.03 in 11 mi SSE 6.7 mph - -   Scattered Clouds
4:00 PM 68.0 °F 62.6 °F 83% 30.01 in 6.2 mi SSE 6.9 mph - N/A   Partly Cloudy
4:30 PM 66.2 °F 62.6 °F 88% 30.01 in 6.2 mi SSE 5.8 mph - N/A   Partly Cloudy
5:00 PM 65 °F 62 °F 86% 30.02 in 9 mi SE 6.7 mph - -   Scattered Clouds
5:00 PM 64.4 °F 62.6 °F 94% 30.01 in 6.2 mi SE 5.8 mph - N/A   Partly Cloudy
5:30 PM 64.4 °F 62.6 °F 94% 30.01 in - SSE 4.6 mph - N/A   Clear
6:00 PM 64.4 °F 60.8 °F 88% 30.01 in - ESE 4.6 mph - N/A   Clear
6:30 PM 64.4 °F 62.6 °F 94% 30.01 in 6.2 mi Variable 2.3 mph - N/A   Scattered Clouds
7:00 PM 65 °F 62 °F 86% 30.04 in 7 mi ESE 4.5 mph - -   Scattered Clouds
7:00 PM 64.4 °F 62.6 °F 94% 30.04 in 6.2 mi ESE 4.6 mph - N/A   Partly Cloudy
7:30 PM 64.4 °F 62.6 °F 94% 30.01 in 6.2 mi ESE 4.6 mph - N/A   Partly Cloudy
8:00 PM 64.4 °F 62.6 °F 94% 30.01 in 6.2 mi Variable 3.5 mph - N/A   Scattered Clouds
8:30 PM 64.4 °F 62.6 °F 94% 30.01 in 6.2 mi SE 4.6 mph - N/A   Scattered Clouds
9:00 PM 66.2 °F 62.6 °F 88% 30.01 in 6.2 mi SE 4.6 mph - N/A   Scattered Clouds
9:30 PM 64.4 °F 62.6 °F 94% 30.01 in 6.2 mi Variable 3.5 mph - N/A   Scattered Clouds
10:00 PM 65 °F 63 °F 89% 30.02 in 6 mi SE 6.7 mph - -   Scattered Clouds
10:00 PM 64.4 °F 62.6 °F 94% 30.01 in 6.2 mi SE 5.8 mph - N/A   Partly Cloudy
10:30 PM 64.4 °F 62.6 °F 94% 30.01 in 6.2 mi Variable 2.3 mph - N/A   Partly Cloudy
11:00 PM 64.4 °F 62.6 °F 94% 30.01 in 6.2 mi SE 4.6 mph - N/A   Partly Cloudy
11:30 PM 62.6 °F 60.8 °F 94% 30.01 in 6.2 mi East 4.6 mph - N/A   Partly Cloudy